Tracking 19717 objects as of 24-Jun-2019
HD Live streaming from Space Station
objects crossing your sky now

OPS 1948

Track OPS 1948 now!
OPS 1948 is classified as:


NORAD ID: 11558
Int'l Code: 1979-086A
Perigee: 30,536.0 km
Apogee: 41,079.0 km
Inclination: 6.2 °
Period: 1,436.8 minutes
Semi major axis: 42178 km
RCS: Unknown
Launch date: October 1, 1979
Source: United States (US)
Launch site: AIR FORCE EASTERN TEST RANGE (AFETR)
aabbcc
Your satellite tracking list
Your tracking list is empty




NASA's NSSDC Master Catalog

Two Line Element Set (TLE):
1 11558U 79086A   19174.30778898 -.00000222 +00000-0 +00000-0 0  9999
2 11558 006.2350 353.0251 1249799 050.2712 320.1769 01.00222721000651
Source of the keplerian elements: McCants